Location: Wildlife_Club
(35.6000°N, 81.4330°W)
Time: 20:45:50
(UTC-04:00)

Altair - Visible Passes

Search period start: 26 June 2019 00:00
Search period end: 06 July 2019 00:00
Orbit: 1501 x 1683 km, 47.2° (Epoch: 25 June)

Date Brightness Start Highest point End Pass type
(mag) Time Alt. Az. Time Alt. Az. Time Alt. Az.
26 Jun 7.9 01:22:54 10° NW 01:32:46 66° NNE 01:42:51 10° ESE visible
26 Jun 7.7 03:28:01 10° WNW 03:37:31 50° SW 03:47:08 10° SSE visible
26 Jun 8.6 22:52:03 10° WNW 23:01:03 42° N 23:10:24 10° ENE visible
27 Jun 7.9 00:57:43 10° NW 01:07:29 63° NNE 01:17:32 10° ESE visible
27 Jun 7.6 03:02:45 10° WNW 03:12:22 54° SW 03:22:08 10° SSE visible
27 Jun 8.9 05:12:30 10° WSW 05:15:41 12° WSW 05:16:10 12° SW visible
27 Jun 8.6 22:26:45 10° WNW 22:35:43 42° N 22:45:01 10° ENE visible
28 Jun 8.0 00:32:31 10° NW 00:42:13 60° NNE 00:52:11 10° ESE visible
28 Jun 7.6 02:37:31 10° WNW 02:47:13 59° SW 02:50:03 46° S visible
28 Jun 9.0 04:46:07 10° W 04:47:49 12° WSW 04:47:49 12° WSW visible
28 Jun 8.7 22:01:27 10° WNW 22:10:23 42° N 22:19:38 10° ENE visible
29 Jun 8.1 00:07:19 10° NW 00:16:56 57° NNE 00:26:08 12° E visible
29 Jun 7.5 02:12:17 10° WNW 02:22:03 64° SW 02:24:00 55° S visible
29 Jun 9.0 04:20:07 10° W 04:21:52 13° W 04:21:52 13° W visible
29 Jun 8.7 21:36:08 10° WNW 21:45:02 42° N 21:54:17 10° ENE visible
29 Jun 8.1 23:42:07 10° NW 23:51:38 54° NNE 00:00:44 13° E visible
30 Jun 7.5 01:47:04 10° WNW 01:56:53 69° SW 01:58:38 60° S visible
30 Jun 9.0 03:54:20 10° W 03:56:32 14° W 03:56:32 14° W visible
30 Jun 8.7 21:10:50 10° WNW 21:19:43 42° N 21:28:56 10° ENE visible
30 Jun 8.2 23:16:55 10° NW 23:26:21 52° NNE 23:35:41 11° E visible
01 Jul 7.4 01:21:51 10° WNW 01:31:42 74° SW 01:33:36 61° SSE visible
01 Jul 9.0 03:28:40 10° W 03:31:32 16° W 03:31:32 16° W visible
01 Jul 8.2 22:51:42 10° WNW 23:01:03 50° NNE 23:10:41 10° E visible
02 Jul 7.4 00:56:39 10° WNW 01:06:31 79° SW 01:08:48 59° SSE visible
02 Jul 8.9 03:03:05 10° WNW 03:06:45 19° W 03:06:45 19° W visible
02 Jul 8.3 22:26:30 10° WNW 22:35:45 48° NNE 22:45:18 10° E visible
03 Jul 7.4 00:31:28 10° WNW 00:41:19 84° SW 00:44:09 54° SE visible
03 Jul 8.8 02:37:36 10° WNW 02:42:06 22° W 02:42:06 22° W visible
03 Jul 8.4 22:01:17 10° WNW 22:10:25 47° NNE 22:19:54 10° E visible
04 Jul 7.5 00:06:18 10° NW 00:16:07 89° SSW 00:19:37 48° SE visible
04 Jul 8.6 02:12:09 10° WNW 02:17:34 26° WSW 02:17:34 26° WSW visible
04 Jul 8.4 21:36:03 10° WNW 21:45:07 45° NNE 21:54:30 10° E visible
04 Jul 7.5 23:41:07 10° NW 23:50:54 86° NE 23:55:10 41° ESE visible
05 Jul 8.5 01:46:45 10° WNW 01:53:08 30° WSW 01:53:08 30° WSW visible
05 Jul 8.5 21:10:49 10° WNW 21:19:47 44° N 21:29:06 10° E visible
05 Jul 7.6 23:15:57 10° NW 23:25:41 81° NNE 23:30:48 34° ESE visible
